When you browse on this site, cookies collect data to enhance your experience and personalize the content and advertising you see.
Visit our Privacy Policy to learn more. By continuing to use the site, you agree to this use of cookies and data.
  • In Austria
  • List of Countries
  • For 7 days
  • Water Temperature
  • Weather Map
  • News
  • Weather Widgets
  • user-avatar
    Login

    Hourly Weather Lezhe

    Today, 15 December, Sunday

    Time Temperature Precipitation Wind Pressure Humidity
    00:00 +8°C° 0 mm 2 mps 734 mmHg 80%
    01:00 +7°C° 0 mm 2 mps 735 mmHg 80%
    02:00 +7°C° 0 mm 2 mps 735 mmHg 79%
    03:00 +7°C° 0 mm 2 mps 735 mmHg 79%
    04:00 +7°C° 0 mm 2 mps 736 mmHg 78%
    05:00 +7°C° 0 mm 2 mps 736 mmHg 77%
    06:00 +7°C° 0 mm 2 mps 737 mmHg 75%
    07:00 +7°C° 0 mm 2 mps 737 mmHg 73%
    08:00 +8°C° 0 mm 2 mps 738 mmHg 70%
    09:00 +11°C° 0 mm 1 mps 738 mmHg 67%
    10:00 +12°C° 0 mm 1 mps 739 mmHg 64%
    11:00 +13°C° 0 mm 1 mps 739 mmHg 62%
    12:00 +14°C° 0 mm 1 mps 739 mmHg 59%
    13:00 +14°C° 0 mm 0 mps 739 mmHg 57%
    14:00 +13°C° 0 mm 0 mps 739 mmHg 61%
    15:00 +12°C° 0 mm 0 mps 739 mmHg 64%
    16:00 +11°C° 0 mm 0 mps 739 mmHg 68%
    17:00 +11°C° 0 mm 1 mps 740 mmHg 66%
    18:00 +11°C° 0 mm 1 mps 740 mmHg 65%
    19:00 +11°C° 0 mm 1 mps 740 mmHg 64%
    20:00 +11°C° 0 mm 1 mps 741 mmHg 64%
    21:00 +11°C° 0 mm 1 mps 741 mmHg 64%
    22:00 +10°C° 0 mm 1 mps 742 mmHg 63%
    23:00 +10°C° 0 mm 1 mps 742 mmHg 63%

    Tomorrow, 16 December, Monday

    Time Temperature Precipitation Wind Pressure Humidity
    00:00 +10°C° 0 mm 1 mps 742 mmHg 63%
    01:00 +10°C° 0 mm 1 mps 742 mmHg 63%
    02:00 +10°C° 0 mm 1 mps 742 mmHg 64%
    03:00 +10°C° 0 mm 1 mps 742 mmHg 66%
    04:00 +9°C° 0 mm 2 mps 742 mmHg 67%
    05:00 +10°C° 0 mm 1 mps 743 mmHg 70%
    06:00 +10°C° 0 mm 1 mps 743 mmHg 73%
    07:00 +10°C° 0 mm 1 mps 743 mmHg 76%
    08:00 +11°C° 0 mm 1 mps 743 mmHg 75%
    09:00 +13°C° 0 mm 1 mps 744 mmHg 74%
    10:00 +14°C° 0 mm 1 mps 744 mmHg 73%
    11:00 +15°C° 0 mm 1 mps 743 mmHg 71%
    12:00 +16°C° 0 mm 1 mps 743 mmHg 70%
    13:00 +16°C° 0 mm 1 mps 743 mmHg 68%
    14:00 +15°C° 0 mm 1 mps 743 mmHg 73%
    15:00 +14°C° 0 mm 1 mps 743 mmHg 77%
    16:00 +13°C° 0 mm 1 mps 743 mmHg 81%
    17:00 +13°C° 0 mm 1 mps 743 mmHg 80%
    18:00 +12°C° 0 mm 1 mps 743 mmHg 79%
    19:00 +12°C° 0 mm 1 mps 743 mmHg 77%
    20:00 +11°C° 0 mm 1 mps 743 mmHg 77%
    21:00 +11°C° 0 mm 1 mps 743 mmHg 76%
    22:00 +11°C° 0 mm 1 mps 743 mmHg 76%
    23:00 +11°C° 0 mm 1 mps 743 mmHg 76%

    Day after tomorrow, 17 December, Tuesday

    Time Temperature Precipitation Wind Pressure Humidity
    00:00 +11°C° 0 mm 1 mps 743 mmHg 76%
    01:00 +10°C° 0 mm 1 mps 743 mmHg 75%
    02:00 +10°C° 0 mm 1 mps 743 mmHg 75%
    03:00 +10°C° 0 mm 1 mps 743 mmHg 75%
    04:00 +10°C° 0 mm 1 mps 742 mmHg 75%
    05:00 +10°C° 0 mm 1 mps 743 mmHg 75%
    06:00 +10°C° 0 mm 1 mps 743 mmHg 75%
    07:00 +10°C° 0 mm 1 mps 743 mmHg 75%
    08:00 +11°C° 0 mm 1 mps 743 mmHg 72%
    09:00 +13°C° 0 mm 1 mps 743 mmHg 69%
    10:00 +14°C° 0 mm 1 mps 743 mmHg 66%
    11:00 +15°C° 0 mm 1 mps 743 mmHg 67%
    12:00 +15°C° 0 mm 1 mps 742 mmHg 67%
    13:00 +16°C° 0 mm 1 mps 742 mmHg 67%
    14:00 +15°C° 0 mm 1 mps 742 mmHg 73%
    15:00 +14°C° 0 mm 1 mps 742 mmHg 78%
    16:00 +13°C° 0 mm 1 mps 742 mmHg 84%
    17:00 +12°C° 0 mm 1 mps 742 mmHg 85%
    18:00 +12°C° 0 mm 1 mps 742 mmHg 85%
    19:00 +11°C° 0 mm 1 mps 742 mmHg 86%
    20:00 +11°C° 0 mm 1 mps 743 mmHg 86%
    21:00 +11°C° 0 mm 1 mps 743 mmHg 86%
    22:00 +11°C° 0 mm 1 mps 743 mmHg 86%
    23:00 +10°C° 0 mm 1 mps 743 mmHg 85%

    18 December, Wednesday

    Time Temperature Precipitation Wind Pressure Humidity
    00:00 +9°C° 0 mm 2 mps 743 mmHg 84%
    01:00 +9°C° 0 mm 2 mps 742 mmHg 84%
    02:00 +9°C° 0 mm 2 mps 742 mmHg 83%
    03:00 +10°C° 0 mm 1 mps 742 mmHg 83%
    04:00 +11°C° 0 mm 1 mps 742 mmHg 82%
    05:00 +9°C° 0 mm 2 mps 742 mmHg 83%
    06:00 +9°C° 0 mm 2 mps 742 mmHg 83%
    07:00 +9°C° 0 mm 2 mps 742 mmHg 84%
    08:00 +10°C° 0 mm 2 mps 742 mmHg 80%
    09:00 +13°C° 0 mm 2 mps 742 mmHg 76%
    10:00 +14°C° 0 mm 2 mps 742 mmHg 73%
    11:00 +15°C° 0 mm 1 mps 742 mmHg 69%
    12:00 +16°C° 0 mm 1 mps 741 mmHg 66%
    13:00 +18°C° 0 mm 1 mps 741 mmHg 62%
    14:00 +16°C° 0 mm 1 mps 741 mmHg 67%
    15:00 +14°C° 0 mm 1 mps 741 mmHg 72%
    16:00 +13°C° 0 mm 1 mps 741 mmHg 77%
    17:00 +13°C° 0 mm 1 mps 741 mmHg 77%
    18:00 +13°C° 0 mm 1 mps 741 mmHg 76%
    19:00 +12°C° 0 mm 1 mps 741 mmHg 75%
    20:00 +12°C° 0 mm 1 mps 741 mmHg 73%
    21:00 +12°C° 0 mm 2 mps 741 mmHg 70%
    22:00 +12°C° 0 mm 2 mps 741 mmHg 68%
    23:00 +12°C° 0 mm 2 mps 741 mmHg 67%

    19 December, Thursday

    Time Temperature Precipitation Wind Pressure Humidity
    00:00 +12°C° 0 mm 1 mps 741 mmHg 67%
    01:00 +12°C° 0 mm 1 mps 740 mmHg 66%
    02:00 +12°C° 0 mm 1 mps 740 mmHg 66%
    03:00 +12°C° 0 mm 2 mps 740 mmHg 66%
    04:00 +12°C° 0 mm 2 mps 739 mmHg 66%
    05:00 +12°C° 0.1 mm 2 mps 739 mmHg 66%
    06:00 +12°C° 0.1 mm 2 mps 739 mmHg 67%
    07:00 +12°C° 0.1 mm 2 mps 739 mmHg 68%
    08:00 +12°C° 1.1 mm 2 mps 739 mmHg 74%
    09:00 +12°C° 1.1 mm 2 mps 739 mmHg 80%
    10:00 +12°C° 1.1 mm 2 mps 739 mmHg 86%
    11:00 +10°C° 2.7 mm 2 mps 739 mmHg 88%
    12:00 +10°C° 2.7 mm 2 mps 738 mmHg 90%
    13:00 +10°C° 2.7 mm 2 mps 738 mmHg 92%
    14:00 +10°C° 0.4 mm 2 mps 738 mmHg 90%
    15:00 +10°C° 0.4 mm 2 mps 738 mmHg 89%
    16:00 +10°C° 0.4 mm 2 mps 738 mmHg 87%
    17:00 +10°C° 0.2 mm 2 mps 738 mmHg 87%
    18:00 +10°C° 0.2 mm 3 mps 738 mmHg 87%
    19:00 +10°C° 0.2 mm 3 mps 738 mmHg 88%
    20:00 +10°C° 0.4 mm 3 mps 738 mmHg 89%
    21:00 +10°C° 0.4 mm 3 mps 738 mmHg 91%
    22:00 +10°C° 0.4 mm 3 mps 738 mmHg 92%
    23:00 +10°C° 0.2 mm 3 mps 738 mmHg 91%

    20 December, Friday

    Time Temperature Precipitation Wind Pressure Humidity
    00:00 +10°C° 0.2 mm 3 mps 738 mmHg 90%
    01:00 +10°C° 0.2 mm 3 mps 737 mmHg 89%
    02:00 +10°C° 0.2 mm 3 mps 737 mmHg 90%
    03:00 +10°C° 0.2 mm 3 mps 737 mmHg 90%
    04:00 +10°C° 0.2 mm 3 mps 737 mmHg 91%
    05:00 +10°C° 0.6 mm 3 mps 737 mmHg 93%
    06:00 +10°C° 0.6 mm 4 mps 737 mmHg 94%
    07:00 +10°C° 0.6 mm 4 mps 737 mmHg 96%
    08:00 +11°C° 1.2 mm 4 mps 737 mmHg 96%
    09:00 +11°C° 1.2 mm 4 mps 737 mmHg 96%
    10:00 +11°C° 1.2 mm 4 mps 737 mmHg 96%
    11:00 +12°C° 0.8 mm 5 mps 736 mmHg 94%
    12:00 +12°C° 0.8 mm 5 mps 736 mmHg 91%
    13:00 +13°C° 0.8 mm 6 mps 736 mmHg 89%
    14:00 +13°C° 0.8 mm 6 mps 736 mmHg 90%
    15:00 +13°C° 0.8 mm 5 mps 736 mmHg 90%
    16:00 +12°C° 0.8 mm 5 mps 736 mmHg 91%
    17:00 +12°C° 0.3 mm 5 mps 735 mmHg 91%
    18:00 +12°C° 0.3 mm 5 mps 735 mmHg 91%
    19:00 +12°C° 0.3 mm 4 mps 735 mmHg 91%
    20:00 +12°C° 0.1 mm 4 mps 735 mmHg 90%
    21:00 +12°C° 0.1 mm 4 mps 734 mmHg 89%
    22:00 +12°C° 0.1 mm 4 mps 734 mmHg 88%
    23:00 +11°C° 0 mm 4 mps 733 mmHg 87%
    Show more